Regional Weather Roundup
Issued by NWS San Diego, CA

Home | Current Version | Previous Version | Text Only | Print | Product List | Glossary On
Versions: 1 2 3 4 5 6 7 8 9 10 11 12 13 14 15 16 17 18 19 20 21 22 23 24 25 26 27 28 29 30 31 32 33 34 35 36 37 38 39 40 41 42 43 44 45 46 47 48 49 50
000
ASUS46 KSGX 231410
RWRSGX

SAN DIEGO HOURLY WEATHER ROUNDUP
NATIONAL WEATHER SERVICE SAN DIEGO CA
700 AM PDT SAT AUG 23 2014

NOTE: "FAIR" INDICATES FEW OR NO CLOUDS BELOW 12,000 FEET WITH NO
SIGNIFICANT WEATHER AND/OR OBSTRUCTIONS TO VISIBILITY.

CAZ042-043-060-061-PZZ750-775-231500-

GREATER SAN DIEGO AREA

CITY           SKY/WX    TMP DP  RH WIND       PRES   REMARKS
LINDBERGH FLD  MOCLDY    67  62  84 NE3       29.97S
POINT LOMA       N/A     66  64  92 NE2         N/A
NATIONAL CITY    N/A     64  60  87 CALM      29.97R
CHULA VISTA      N/A     61  59  93 CALM      29.90S
IMPERIAL BEACH PTCLDY    65  63  93 E5        29.96R
BROWN FIELD    PTCLDY    61  59  93 CALM      29.96S
MIRAMAR MCAS   PTCLDY    61  58  90 NE5       29.96S
MONTGOMERY FLD PTCLDY    64  61  90 CALM      29.97R

$$

NORTH SAN DIEGO COUNTY

CITY           SKY/WX    TMP DP  RH WIND       PRES   REMARKS
CAMP PENDLETON CLOUDY    62  59  90 N3        29.96S FOG
OCEANSIDE AP   CLOUDY    64  61  90 CALM      29.96R FOG
VISTA            N/A     61  58  89 CALM      29.94S
CARLSBAD       CLEAR     63  60  90 CALM      29.96R FOG
DEL MAR          N/A     62  61  96 CALM      29.98R
LA JOLLA SCRIP   N/A     64  63  97 E2        29.93R
FALLBROOK        N/A     60  60 100 CALM      29.97S
ESCONDIDO        N/A     60  58  91 CALM      29.98R
SAN MARCOS       N/A     61  57  85 CALM      29.94R
POWAY            N/A     60  58  92 CALM      29.97R
R. PENASQUITOS   N/A     63  61  95 CALM      29.96R

$$

EAST SAN DIEGO COUNTY

CITY           SKY/WX    TMP DP  RH WIND       PRES   REMARKS
RAMONA         CLEAR     52  45  77 CALM      29.98S
GILLESPIE FLD  FAIR      61  61 100 W3        29.98S
LA MESA          N/A     62  59  90 CALM      29.90R
JAMUL            N/A     56  54  94 CALM      29.94S
DESCANSO N       N/A     56  35  44 E1        29.85S
MT. LAGUNA OBS   N/A     54  25  33 W12       29.74S
CAMPO            N/A     53  43  68 NE5       30.01S

$$

ORANGE COUNTY AND THE LOS ANGELES BASIN

CITY           SKY/WX    TMP DP  RH WIND       PRES   REMARKS
JOHN WAYNE AP  MOCLDY    68  60  75 VRB3      29.96R
LAGUNA BEACH     N/A     64  61  91 N3        29.92R
LAKE FOREST FR   N/A     60  56  86 CALM      29.88R
SANTA ANA        N/A     65  61  87 CALM      29.91S
HUNTINGTON BCH   N/A     65  62  90 CALM      29.98R
LOS ALAMITOS   FAIR      64  61  88 SE2       29.96R
FULLERTON      MOCLDY    68  60  75 SE3       29.95S
LONG BEACH     MOCLDY    67  61  81 CALM      29.96R
L.A. AP        PTCLDY    67  60  78 VRB6      29.96R
L.A. DOWNTOWN  CLOUDY    68  60  75 CALM      29.95S

$$

THE INLAND EMPIRE

CITY           SKY/WX    TMP DP  RH WIND       PRES   REMARKS
CORONA         PTCLDY    57  55  94 CALM      29.98R
CHINO          CLEAR     60  60 100 CALM      29.98S FOG
ONTARIO        CLEAR     64  61  90 CALM      29.98R FOG
SAN BERNARDINO PTCLDY    61  46  59 CALM      29.98
RIVERSIDE AP   CLEAR     63  59  87 CALM      29.98R
RIV CYN CREST    N/A     61  61 100 CALM      29.95S
MORENO VALLEY    N/A     61  53  75 CALM      29.17S
MARCH ARB      CLEAR     58  53  81 CALM      29.99R
HORSETHIEF CYN   N/A     58  40  51 SW2       29.97R
PERRIS           N/A     59  49  68 CALM      29.97S
MENIFEE          N/A     58  55  89 CALM      30.04S
HEMET EAST       N/A     59  33  37 CALM      29.95R
FRENCH VALLEY  FAIR      57  52  82 CALM      29.99R
TEMECULA         N/A     57  53  86 CALM      29.95S

$$

SAN BERNARDINO AND RIVERSIDE COUNTY MOUNTAINS

CITY           SKY/WX    TMP DP  RH WIND       PRES   REMARKS
BIG BEAR AP    CLEAR     43  32  65 CALM      30.21R
BIG BEAR SHEA    N/A     42  31  64 CALM      30.02R
ANGELUS OAKS     N/A     51  33  50 CALM      29.85R
PINE COVE        N/A     56   7  14 CALM      29.83S

$$

SOUTHERN DESERT INCLUDING THE COACHELLA VALLEY

CITY           SKY/WX    TMP DP  RH WIND       PRES   REMARKS
PALM SPRINGS   CLEAR     78  42  27 VRB3      29.87R
THOUSAND PALMS   N/A     80  36  20 W13       29.82R
PALM DESERT      N/A     69  54  58 CALM      28.72S
THERMAL        CLEAR     70  40  33 CALM      29.82R
BLYTHE         SUNNY     79  46  31 S5        29.85R
IMPERIAL AP    CLEAR     76  58  53 SW7       29.83S
EL CENTRO NAS  PTCLDY    79  58  48 SW10      29.83S
YUMA AZ        SUNNY     82  67  60 NW3       29.86R

$$

UPPER DESERT

CITY           SKY/WX    TMP DP  RH WIND       PRES   REMARKS
VICTORVILLE AP CLEAR     64  30  27 S6        29.99R
HESPERIA         N/A     66  30  26 NW5       29.97R
APPLE VALLEY     N/A     67  33  28 CALM      30.05S
GRAY BUTTE AP  FAIR      60  38  44 SE3       29.98R
PALMDALE       CLEAR     68  29  23 SW13      29.97S
LANCASTER      CLEAR     68  30  24 W15       29.97R
EDWARDS AFB    PTCLDY    69  28  21 SW15      29.94R
DAGGETT        CLEAR     74  36  25 NW15      29.91R
29 PALMS N     CLEAR     69  35  28 CALM      29.99R
NEEDLES        SUNNY     82  50  32 W6        29.87R

$$

REGIONAL REPORTS

CITY           SKY/WX    TMP DP  RH WIND       PRES   REMARKS
SANTA BARBARA  CLOUDY    62  59  90 SW3       29.97R FOG
SANDBERG       CLEAR     63  19  18 S10       30.09R
MT. WILSON       N/A     57  10  15 SE3         N/A
LAS VEGAS NV   CLEAR     78  45  30 SW12      29.86R
PHOENIX AZ     MOSUNNY   77  61  57 E10       29.92R
TIJUANA        MOCLDY    64  61  88 CALM      29.98
ENSENADA NW      N/A     69  32  25 NE3       29.93R

$$

OFFSHORE ISLANDS

CITY           SKY/WX    TMP DP  RH WIND       PRES   REMARKS
CATALINA ARPT  PTCLDY    58  56  93 CALM      29.99R
SAN NICOLAS IS CLOUDY   N/A N/A N/A W7        29.97R HAZE

$$

MARINE AND OFFSHORE BUOY REPORTS

STATION/POSITION SKY/WX   TEMP    WIND        PRES    SWELL
                          AIR SEA DIR/SP/G            HT/PER/DIR
                          (F)     (DEG/KT/KT) (MB)    (FT/S/D)
TANNER BANKS               65 69  290/  4/  8 1014.7R   7/180/12
S CLEMENTE BASIN           67 70  310/  4/  6 1014.1F   5/200/11
SAN NICOLAS IS.               67                N/A     7/180/12
SO. S. ROSA ISLA           62 68  240/  2/  4 1014.4R   7/11
W. S. BARBARA CH           60 63  280/  6/  8 1013.8R   3/180/12
M. S. BARBARA CH           61 66  210/  2/  4 1014.5R
S. MONICA BASIN            66 71  240/  2/  4 1014.3R   3/190/12
S PEDRO CHANNEL               69                N/A     2/170/11
DANA POINT                    71                N/A     3/190/12
CMP PENDLETON NS              72                N/A     3/210/12
OCEANSIDE OFFSHR              73                N/A     5/200/11
TORREY PINES OTR              73                N/A     3/200/11
LA JOLLA 1                 65 72  100/  5/  6 1014.4S
MISSION BAY BUOY              73                N/A     5/190/11
SAN DIEGO BAY                 74              1014.9R
POINT LOMA SOUTH              73                N/A     5/200/12

$$



USA.gov is the U.S. government's official web portal to all federal, state and local government web resources and services.